Location: Unspecified
(54.1780°N, 0.0000°E)
Time: 08:59:43
(UTC+00:00)

Transit 2A - Pass Details

Date: 21 June 2019
Orbit: 594 x 965 km, 66.7° (Epoch: 16 July)

Event Time Altitude Azimuth Distance (km) Brightness Sun altitude
Rises 02:43:02 0° 249° (WSW) 3,649 - -5.0°
Exits shadow 02:43:03 - 249° (WSW) 3,643 9.0 -5.0°
Reaches altitude 10° 02:45:47 10° 256° (WSW) 2,700 8.4 -4.7°
Maximum altitude 02:51:49 43° 327° (NNW) 1,293 7.4 -4.2°
Drops below altitude 10° 02:57:36 10° 39° (NE) 2,581 10.8 -3.7°
Sets 03:00:10 0° 46° (NE) 3,474 12.2 -3.4°
